| time (UTC) | temp C | wind direction | speed KPH | gust KPH | rain 1hr cm | rain 24hr cm | rain mn cm | humidity % | barometer mb |
| 20260504040307 | 11 | 236 | 12.9 | 22.5 | 0.00 | 0.00 | 0.00 | 57 | 1013.6 |
| 20260504035806 | 11 | 235 | 11.3 | 25.7 | 0.00 | 0.00 | 0.00 | 55 | 1013.5 |
| 20260504035306 | 11 | 244 | 12.9 | 20.9 | 0.00 | 0.00 | 0.00 | 54 | 1013.4 |
| 20260504034805 | 11 | 248 | 14.5 | 24.1 | 0.00 | 0.00 | 0.00 | 56 | 1013.3 |
| 20260504034305 | 11 | 244 | 16.1 | 27.4 | 0.00 | 0.00 | 0.00 | 54 | 1013.3 |
| 20260504033805 | 11 | 238 | 14.5 | 25.7 | 0.00 | 0.00 | 0.00 | 54 | 1013.3 |
| 20260504033305 | 11 | 245 | 16.1 | 24.1 | 0.00 | 0.00 | 0.00 | 54 | 1013.2 |
| 20260504030805 | 11 | 245 | 11.3 | 24.1 | 0.00 | 0.00 | 0.00 | 55 | 1013.3 |
| 20260504025805 | 11 | 242 | 12.9 | 20.9 | 0.00 | 0.00 | 0.00 | 57 | 1013.2 |
| 20260504025306 | 11 | 244 | 12.9 | 19.3 | 0.00 | 0.00 | 0.00 | 56 | 1013.3 |
| 20260504023305 | 12 | 225 | 11.3 | 20.9 | 0.00 | 0.00 | 0.00 | 54 | 1013.2 |
| 20260504022306 | 12 | 247 | 12.9 | 19.3 | 0.00 | 0.00 | 0.00 | 53 | 1013.2 |
| 20260504021806 | 12 | 241 | 14.5 | 20.9 | 0.00 | 0.00 | 0.00 | 54 | 1013.2 |
| 20260504020806 | 12 | 249 | 9.7 | 19.3 | 0.00 | 0.00 | 0.00 | 53 | 1013.2 |
| 20260504015306 | 12 | 253 | 14.5 | 19.3 | 0.00 | 0.00 | 0.00 | 52 | 1013.2 |
| 20260504013806 | 12 | 242 | 11.3 | 19.3 | 0.00 | 0.00 | 0.00 | 53 | 1013.1 |
| 20260504012806 | 12 | 250 | 9.7 | 16.1 | 0.00 | 0.00 | 0.00 | 52 | 1013.0 |
| 20260504011306 | 13 | 239 | 11.3 | 19.3 | 0.00 | 0.00 | 0.00 | 48 | 1012.7 |
| 20260504010306 | 13 | 238 | 9.7 | 16.1 | 0.00 | 0.00 | 0.00 | 49 | 1012.5 |
| 20260504002306 | 13 | 237 | 8.0 | 12.9 | 0.00 | 0.00 | 0.00 | 47 | 1012.2 |
| 20260504001305 | 13 | 253 | 9.7 | 16.1 | 0.00 | 0.00 | 0.00 | 49 | 1012.1 |
| 20260503235806 | 13 | 253 | 8.0 | 16.1 | 0.00 | 0.00 | 0.00 | 47 | 1011.9 |
| 20260503234805 | 13 | 260 | 11.3 | 19.3 | 0.00 | 0.00 | 0.00 | 44 | 1011.8 |
| 20260503231806 | 14 | 258 | 11.3 | 19.3 | 0.00 | 0.00 | 0.00 | 41 | 1011.5 |
| 20260503231304 | 14 | 261 | 9.7 | 19.3 | 0.00 | 0.00 | 0.00 | 41 | 1011.5 |
| 20260503230805 | 15 | 254 | 14.5 | 22.5 | 0.00 | 0.00 | 0.00 | 36 | 1011.5 |
| 20260503230305 | 15 | 265 | 9.7 | 20.9 | 0.00 | 0.00 | 0.00 | 39 | 1011.5 |
| 20260503224805 | 15 | 279 | 8.0 | 19.3 | 0.00 | 0.00 | 0.00 | 41 | 1011.5 |
| 20260503223805 | 15 | 259 | 14.5 | 22.5 | 0.00 | 0.00 | 0.00 | 40 | 1011.4 |
| 20260503223305 | 15 | 259 | 16.1 | 22.5 | 0.00 | 0.00 | 0.00 | 40 | 1011.4 |
| 20260503221805 | 15 | 273 | 14.5 | 22.5 | 0.00 | 0.00 | 0.00 | 39 | 1011.3 |
| 20260503220805 | 15 | 272 | 14.5 | 24.1 | 0.00 | 0.00 | 0.00 | 37 | 1011.2 |
| 20260503215805 | 15 | 279 | 14.5 | 29.0 | 0.00 | 0.00 | 0.00 | 39 | 1011.2 |
| 20260503214805 | 15 | 287 | 11.3 | 22.5 | 0.00 | 0.00 | 0.00 | 40 | 1011.2 |
| 20260503213806 | 15 | 273 | 14.5 | 27.4 | 0.00 | 0.00 | 0.00 | 39 | 1011.0 |
| 20260503212805 | 14 | 273 | 16.1 | 29.0 | 0.00 | 0.00 | 0.00 | 38 | 1011.0 |
| 20260503211804 | 15 | 270 | 17.7 | 29.0 | 0.00 | 0.00 | 0.00 | 40 | 1011.0 |
| 20260503211306 | 15 | 282 | 9.7 | 22.5 | 0.00 | 0.00 | 0.00 | 38 | 1011.0 |
| 20260503205305 | 15 | 258 | 14.5 | 24.1 | 0.00 | 0.00 | 0.00 | 38 | 1011.0 |
| 20260503204805 | 15 | 306 | 11.3 | 25.7 | 0.00 | 0.00 | 0.00 | 37 | 1011.0 |
| 20260503204306 | 15 | 281 | 17.7 | 33.8 | 0.00 | 0.00 | 0.00 | 39 | 1010.9 |
| 20260503203805 | 15 | 286 | 9.7 | 19.3 | 0.00 | 0.00 | 0.00 | 38 | 1010.9 |
| 20260503203306 | 15 | 274 | 11.3 | 24.1 | 0.00 | 0.00 | 0.00 | 38 | 1011.0 |
| 20260503195805 | 13 | 262 | 16.1 | 25.7 | 0.00 | 0.00 | 0.00 | 38 | 1011.0 |
| 20260503194805 | 13 | 266 | 16.1 | 32.2 | 0.00 | 0.00 | 0.00 | 41 | 1011.2 |
| 20260503194305 | 13 | 280 | 16.1 | 32.2 | 0.00 | 0.00 | 0.00 | 41 | 1011.2 |
| 20260503193806 | 13 | 286 | 11.3 | 20.9 | 0.00 | 0.00 | 0.00 | 41 | 1011.3 |
| 20260503192807 | 13 | 278 | 9.7 | 22.5 | 0.00 | 0.00 | 0.00 | 42 | 1011.4 |
| 20260503192305 | 13 | 280 | 8.0 | 19.3 | 0.00 | 0.00 | 0.00 | 43 | 1011.4 |
| 20260503191304 | 13 | 266 | 9.7 | 22.5 | 0.00 | 0.00 | 0.00 | 43 | 1011.5 |
| 20260503190805 | 13 | 270 | 11.3 | 20.9 | 0.00 | 0.00 | 0.00 | 45 | 1011.5 |
| 20260503185805 | 13 | 274 | 16.1 | 24.1 | 0.00 | 0.00 | 0.00 | 43 | 1011.6 |
| 20260503185305 | 13 | 274 | 9.7 | 25.7 | 0.00 | 0.00 | 0.00 | 43 | 1011.6 |
| 20260503183306 | 13 | 263 | 11.3 | 22.5 | 0.00 | 0.00 | 0.00 | 43 | 1011.6 |
| 20260503182805 | 13 | 271 | 11.3 | 22.5 | 0.00 | 0.00 | 0.00 | 44 | 1011.8 |
| 20260503182306 | 13 | 260 | 9.7 | 20.9 | 0.00 | 0.00 | 0.00 | 45 | 1011.7 |
| 20260503181305 | 12 | 279 | 9.7 | 24.1 | 0.00 | 0.00 | 0.00 | 42 | 1011.8 |
| 20260503175305 | 12 | 272 | 9.7 | 20.9 | 0.00 | 0.00 | 0.00 | 43 | 1011.8 |
| 20260503174305 | 12 | 322 | 11.3 | 20.9 | 0.00 | 0.00 | 0.00 | 46 | 1011.7 |
| 20260503170305 | 11 | 251 | 8.0 | 20.9 | 0.00 | 0.00 | 0.00 | 48 | 1011.8 |
| 20260503131305 | 9 | 341 | 11.3 | 20.9 | 0.00 | 0.00 | 0.00 | 61 | 1011.9 |
| 20260503130304 | 8 | 304 | 14.5 | 24.1 | 0.00 | 0.00 | 0.00 | 61 | 1011.8 |
| 20260503110805 | 8 | 291 | 8.0 | 20.9 | 0.00 | 0.00 | 0.00 | 65 | 1011.0 |
| 20260503110304 | 8 | 301 | 4.8 | 14.5 | 0.00 | 0.00 | 0.00 | 65 | 1010.9 |
| 20260503090304 | 8 | 340 | 14.5 | 22.5 | 0.00 | 0.00 | 0.00 | 63 | 1009.1 |
| 20260503081305 | 9 | 327 | 9.7 | 20.9 | 0.00 | 0.00 | 0.00 | 63 | 1008.9 |
| 20260503072804 | 10 | 316 | 8.0 | 19.3 | 0.00 | 0.00 | 0.00 | 60 | 1008.9 |
| 20260503071805 | 10 | 339 | 8.0 | 19.3 | 0.00 | 0.00 | 0.00 | 61 | 1008.9 |
| 20260503070804 | 10 | 308 | 6.4 | 14.5 | 0.00 | 0.00 | 0.00 | 61 | 1008.8 |
| 20260503060305 | 11 | 342 | 8.0 | 22.5 | 0.00 | 0.00 | 0.00 | 61 | 1009.0 |
| 20260503054805 | 11 | 322 | 9.7 | 19.3 | 0.00 | 0.00 | 0.00 | 62 | 1009.0 |
| 20260503054304 | 11 | 356 | 9.7 | 19.3 | 0.00 | 0.00 | 0.00 | 61 | 1009.1 |
| 20260503052306 | 11 | 338 | 8.0 | 19.3 | 0.00 | 0.00 | 0.00 | 62 | 1009.3 |
| 20260503051804 | 11 | 313 | 9.7 | 20.9 | 0.00 | 0.00 | 0.00 | 60 | 1009.3 |
| 20260503050804 | 11 | 324 | 11.3 | 20.9 | 0.00 | 0.00 | 0.00 | 59 | 1009.3 |
| 20260503045804 | 11 | 312 | 8.0 | 16.1 | 0.00 | 0.00 | 0.00 | 60 | 1009.3 |
| 20260503045305 | 11 | 330 | 9.7 | 19.3 | 0.00 | 0.00 | 0.00 | 60 | 1009.5 |
| 20260503044805 | 11 | 295 | 9.7 | 20.9 | 0.00 | 0.00 | 0.00 | 61 | 1009.5 |
| 20260503044304 | 11 | 341 | 9.7 | 20.9 | 0.00 | 0.00 | 0.00 | 59 | 1009.5 |
| 20260503043804 | 11 | 338 | 11.3 | 22.5 | 0.00 | 0.00 | 0.00 | 61 | 1009.4 |
| 20260503042805 | 11 | 339 | 9.7 | 19.3 | 0.00 | 0.00 | 0.00 | 61 | 1009.7 |
| 20260503041805 | 11 | 313 | 8.0 | 19.3 | 0.00 | 0.00 | 0.00 | 61 | 1009.7 |
| 20260503041305 | 11 | 312 | 8.0 | 20.9 | 0.00 | 0.00 | 0.00 | 62 | 1009.8 |